| time (UTC) | temp F | wind direction | speed MPH | gust MPH | rain 1hr in | rain 24hr in | rain mn in | humidity % | barometer mb |
| 20260902010704 | 66 | 224 | 1.0 | 8.0 | 0.00 | 0.00 | 0.00 | 74 | 1009.7 |
| 20260902010204 | 66 | 198 | 2.0 | 8.0 | 0.00 | 0.00 | 0.00 | 74 | 1009.7 |
| 20260902003704 | 66 | 159 | 3.0 | 7.0 | 0.00 | 0.00 | 0.00 | 74 | 1009.7 |
| 20260902003204 | 66 | 173 | 2.0 | 7.0 | 0.00 | 0.00 | 0.00 | 75 | 1009.8 |
| 20260902000703 | 66 | 254 | 1.0 | 3.0 | 0.00 | 0.00 | 0.00 | 75 | 1009.7 |
| 20260902000204 | 66 | 223 | 3.0 | 9.0 | 0.00 | 0.00 | 0.00 | 75 | 1009.7 |
| 20260901233704 | 66 | 210 | 3.0 | 9.0 | 0.00 | 0.00 | 0.00 | 74 | 1009.7 |
| 20260901230704 | 66 | 186 | 4.0 | 7.0 | 0.00 | 0.00 | 0.00 | 75 | 1009.7 |
| 20260901230204 | 66 | 210 | 1.0 | 10.0 | 0.00 | 0.00 | 0.00 | 76 | 1009.7 |
| 20260901223704 | 66 | 185 | 1.0 | 7.0 | 0.00 | 0.00 | 0.00 | 75 | 1009.8 |
| 20260901220704 | 66 | 232 | 3.0 | 8.0 | 0.00 | 0.00 | 0.00 | 75 | 1009.8 |
| 20260901220204 | 66 | 208 | 4.0 | 12.0 | 0.00 | 0.00 | 0.00 | 74 | 1009.8 |
| 20260901213703 | 66 | 255 | 3.0 | 8.0 | 0.00 | 0.00 | 0.00 | 74 | 1009.7 |
| 20260901213204 | 66 | 226 | 5.0 | 12.0 | 0.00 | 0.00 | 0.00 | 74 | 1009.7 |
| 20260901210205 | 66 | 218 | 2.0 | 9.0 | 0.00 | 0.00 | 0.00 | 74 | 1009.8 |
| 20260901203704 | 66 | 150 | 1.0 | 3.0 | 0.00 | 0.00 | 0.00 | 75 | 1010.0 |
| 20260901203204 | 66 | 130 | 2.0 | 7.0 | 0.00 | 0.00 | 0.00 | 76 | 1010.0 |
| 20260901200704 | 66 | 116 | 0.0 | 3.0 | 0.00 | 0.00 | 0.00 | 75 | 1010.0 |
| 20260901200204 | 66 | 119 | 2.0 | 7.0 | 0.00 | 0.00 | 0.00 | 75 | 1010.0 |
| 20260901193704 | 67 | 144 | 2.0 | 3.0 | 0.00 | 0.00 | 0.00 | 75 | 1010.1 |
| 20260901193205 | 66 | 168 | 3.0 | 6.0 | 0.00 | 0.00 | 0.00 | 75 | 1010.1 |
| 20260901190704 | 66 | 119 | 1.0 | 3.0 | 0.00 | 0.00 | 0.00 | 75 | 1010.2 |
| 20260901183705 | 65 | 238 | 3.0 | 8.0 | 0.00 | 0.00 | 0.00 | 76 | 1010.4 |
| 20260901183204 | 65 | 174 | 3.0 | 7.0 | 0.00 | 0.00 | 0.00 | 75 | 1010.3 |
| 20260901180704 | 65 | 195 | 2.0 | 6.0 | 0.00 | 0.00 | 0.00 | 77 | 1010.2 |
| 20260901173703 | 64 | 160 | 3.0 | 8.0 | 0.00 | 0.00 | 0.00 | 79 | 1010.1 |
| 20260901173203 | 64 | 136 | 2.0 | 7.0 | 0.00 | 0.00 | 0.00 | 79 | 1009.9 |
| 20260901170704 | 62 | 165 | 1.0 | 5.0 | 0.00 | 0.00 | 0.00 | 82 | 1010.1 |
| 20260901170204 | 62 | 162 | 2.0 | 6.0 | 0.00 | 0.00 | 0.00 | 82 | 1010.1 |
| 20260901163704 | 61 | 151 | 3.0 | 9.0 | 0.00 | 0.00 | 0.00 | 84 | 1010.3 |
| 20260901163204 | 61 | 163 | 2.0 | 10.0 | 0.00 | 0.00 | 0.00 | 84 | 1010.3 |
| 20260901160204 | 61 | 148 | 3.0 | 8.0 | 0.00 | 0.00 | 0.00 | 84 | 1010.2 |
| 20260901153704 | 60 | 178 | 1.0 | 3.0 | 0.00 | 0.00 | 0.00 | 86 | 1010.5 |
| 20260901153204 | 60 | 168 | 2.0 | 10.0 | 0.00 | 0.00 | 0.00 | 86 | 1010.4 |
| 20260901150204 | 60 | 170 | 3.0 | 6.0 | 0.00 | 0.00 | 0.00 | 86 | 1010.4 |
| 20260901143704 | 59 | 162 | 2.0 | 8.0 | 0.00 | 0.00 | 0.00 | 86 | 1010.1 |
| 20260901133704 | 59 | 236 | 2.0 | 5.0 | 0.00 | 0.00 | 0.00 | 86 | 1009.7 |
| 20260901130704 | 58 | 120 | 1.0 | 3.0 | 0.00 | 0.00 | 0.00 | 85 | 1009.7 |
| 20260901130204 | 59 | 120 | 1.0 | 5.0 | 0.00 | 0.00 | 0.00 | 85 | 1009.6 |
| 20260901123703 | 59 | 153 | 1.0 | 2.0 | 0.00 | 0.00 | 0.00 | 84 | 1009.5 |
| 20260901123204 | 60 | 153 | 1.0 | 3.0 | 0.00 | 0.00 | 0.00 | 83 | 1009.5 |
| 20260901120205 | 59 | 145 | 1.0 | 3.0 | 0.00 | 0.00 | 0.00 | 85 | 1009.2 |
| 20260901113704 | 59 | 24 | 0.0 | 0.0 | 0.00 | 0.00 | 0.00 | 85 | 1008.9 |
| 20260901113204 | 59 | 24 | 0.0 | 0.0 | 0.00 | 0.00 | 0.00 | 85 | 1009.0 |
| 20260901110204 | 59 | 24 | 0.0 | 0.0 | 0.00 | 0.00 | 0.00 | 84 | 1008.9 |
| 20260901103704 | 60 | 24 | 0.0 | 0.0 | 0.00 | 0.00 | 0.00 | 83 | 1008.9 |
| 20260901103204 | 60 | 24 | 0.0 | 0.0 | 0.00 | 0.00 | 0.00 | 84 | 1008.8 |
| 20260901100705 | 60 | 24 | 0.0 | 0.0 | 0.00 | 0.00 | 0.00 | 83 | 1008.8 |
| 20260901100204 | 60 | 24 | 0.0 | 0.0 | 0.00 | 0.00 | 0.00 | 82 | 1008.6 |
| 20260901093704 | 62 | 24 | 0.0 | 0.0 | 0.00 | 0.00 | 0.00 | 81 | 1008.5 |
| 20260901090704 | 61 | 24 | 0.0 | 0.0 | 0.00 | 0.00 | 0.00 | 81 | 1008.5 |
| 20260901090204 | 62 | 24 | 0.0 | 0.0 | 0.00 | 0.00 | 0.00 | 80 | 1008.5 |
| 20260901083703 | 63 | 24 | 0.0 | 0.0 | 0.00 | 0.00 | 0.00 | 79 | 1008.4 |
| 20260901083204 | 63 | 24 | 0.0 | 0.0 | 0.00 | 0.00 | 0.00 | 78 | 1008.4 |
| 20260901080204 | 63 | 24 | 0.0 | 3.0 | 0.00 | 0.00 | 0.00 | 77 | 1008.1 |
| 20260901073704 | 64 | 24 | 1.0 | 3.0 | 0.00 | 0.00 | 0.00 | 76 | 1008.1 |
| 20260901073204 | 64 | 26 | 1.0 | 3.0 | 0.00 | 0.00 | 0.00 | 76 | 1008.1 |
| 20260901070205 | 64 | 21 | 0.0 | 2.0 | 0.00 | 0.00 | 0.00 | 75 | 1008.1 |
| 20260901063204 | 64 | 21 | 0.0 | 3.0 | 0.00 | 0.00 | 0.00 | 74 | 1008.0 |
| 20260901060704 | 66 | 21 | 0.0 | 1.0 | 0.00 | 0.00 | 0.00 | 73 | 1008.4 |
| 20260901060204 | 66 | 21 | 1.0 | 3.0 | 0.00 | 0.00 | 0.00 | 73 | 1008.3 |
| 20260901053704 | 66 | 5 | 1.0 | 3.0 | 0.00 | 0.00 | 0.00 | 75 | 1008.4 |
| 20260901053205 | 66 | 11 | 1.0 | 5.0 | 0.00 | 0.00 | 0.00 | 74 | 1008.4 |
| 20260901050704 | 67 | 326 | 2.0 | 3.0 | 0.00 | 0.00 | 0.00 | 73 | 1008.4 |
| 20260901050204 | 66 | 351 | 0.0 | 3.0 | 0.00 | 0.00 | 0.00 | 74 | 1008.4 |
| 20260901043704 | 67 | 0 | 1.0 | 3.0 | 0.00 | 0.00 | 0.00 | 71 | 1008.5 |
| 20260901040704 | 68 | 341 | 1.0 | 3.0 | 0.00 | 0.00 | 0.00 | 70 | 1008.4 |
| 20260901040204 | 69 | 18 | 2.0 | 6.0 | 0.00 | 0.00 | 0.00 | 69 | 1008.3 |
| 20260901033204 | 69 | 326 | 2.0 | 6.0 | 0.00 | 0.00 | 0.00 | 69 | 1008.0 |
| 20260901030704 | 70 | 337 | 2.0 | 5.0 | 0.00 | 0.00 | 0.00 | 66 | 1007.8 |
| 20260901030204 | 70 | 334 | 1.0 | 7.0 | 0.00 | 0.00 | 0.00 | 65 | 1007.8 |
| 20260901023204 | 71 | 5 | 1.0 | 6.0 | 0.00 | 0.00 | 0.00 | 62 | 1007.9 |
| 20260901020703 | 72 | 335 | 2.0 | 8.0 | 0.00 | 0.00 | 0.00 | 60 | 1007.9 |
| 20260901020203 | 72 | 337 | 2.0 | 8.0 | 0.00 | 0.00 | 0.00 | 61 | 1007.9 |
| 20260901013703 | 73 | 335 | 1.0 | 5.0 | 0.00 | 0.00 | 0.00 | 59 | 1007.9 |
| 20260901013204 | 73 | 275 | 4.0 | 9.0 | 0.00 | 0.00 | 0.00 | 58 | 1007.9 |